Year,Month,Day,Hour,Minute,Value (Times are PST for windgust in km/hr)
2012,01,22,00,00,9.60
2012,01,22,00,01,19.30
2012,01,22,00,02,17.70
2012,01,22,00,03,9.60
2012,01,22,00,04,11.30
2012,01,22,00,05,16.10
2012,01,22,00,06,14.50
2012,01,22,00,07,9.60
2012,01,22,00,08,17.70
2012,01,22,00,09,11.30
2012,01,22,00,10,17.70
2012,01,22,00,11,22.50
2012,01,22,00,12,14.50
2012,01,22,00,13,16.10
2012,01,22,00,14,12.90
2012,01,22,00,15,14.50
2012,01,22,00,16,14.50
2012,01,22,00,17,11.30
2012,01,22,00,18,19.30
2012,01,22,00,19,14.50
2012,01,22,00,20,16.10
2012,01,22,00,21,12.90
2012,01,22,00,22,3.20
2012,01,22,00,23,11.30
2012,01,22,00,24,14.50
2012,01,22,00,25,19.30
2012,01,22,00,26,17.70
2012,01,22,00,27,20.90
2012,01,22,00,28,16.10
2012,01,22,00,29,16.10
2012,01,22,00,30,14.50
2012,01,22,00,31,22.50
2012,01,22,00,32,9.60
2012,01,22,00,33,17.70
2012,01,22,00,34,19.30
2012,01,22,00,35,17.70
2012,01,22,00,36,12.90
2012,01,22,00,37,9.60
2012,01,22,00,38,12.90
2012,01,22,00,39,9.60
2012,01,22,00,40,20.90
2012,01,22,00,41,12.90
2012,01,22,00,42,16.10
2012,01,22,00,43,14.50
2012,01,22,00,44,12.90
2012,01,22,00,45,14.50
2012,01,22,00,46,17.70
2012,01,22,00,47,17.70
2012,01,22,00,48,8.10
2012,01,22,00,49,9.60
2012,01,22,00,50,19.30
2012,01,22,00,51,22.50
2012,01,22,00,52,14.50
2012,01,22,00,53,12.90
2012,01,22,00,54,17.70
2012,01,22,00,55,20.90
2012,01,22,00,56,16.10
2012,01,22,00,57,19.30
2012,01,22,00,58,20.90
2012,01,22,00,59,14.50
2012,01,22,01,00,14.50
2012,01,22,01,01,16.10
2012,01,22,01,02,22.50
2012,01,22,01,03,17.70
2012,01,22,01,04,9.60
2012,01,22,01,05,11.30
2012,01,22,01,06,9.60
2012,01,22,01,07,16.10
2012,01,22,01,08,22.50
2012,01,22,01,09,16.10
2012,01,22,01,10,17.70
2012,01,22,01,11,14.50
2012,01,22,01,12,14.50
2012,01,22,01,13,11.30
2012,01,22,01,14,17.70
2012,01,22,01,15,9.60
2012,01,22,01,16,12.90
2012,01,22,01,17,9.60
2012,01,22,01,18,16.10
2012,01,22,01,19,16.10
2012,01,22,01,20,11.30
2012,01,22,01,21,6.40
2012,01,22,01,22,19.30
2012,01,22,01,23,16.10
2012,01,22,01,24,6.40
2012,01,22,01,25,14.50
2012,01,22,01,26,16.10
2012,01,22,01,27,19.30
2012,01,22,01,28,22.50
2012,01,22,01,29,12.90
2012,01,22,01,30,24.20
2012,01,22,01,31,20.90
2012,01,22,01,32,24.20
2012,01,22,01,33,12.90
2012,01,22,01,34,17.70
2012,01,22,01,35,25.70
2012,01,22,01,36,20.90
2012,01,22,01,37,12.90
2012,01,22,01,38,14.50
2012,01,22,01,39,12.90
2012,01,22,01,40,14.50
2012,01,22,01,41,12.90
2012,01,22,01,42,11.30
2012,01,22,01,43,14.50
2012,01,22,01,44,17.70
2012,01,22,01,45,20.90
2012,01,22,01,46,19.30
2012,01,22,01,47,14.50
2012,01,22,01,48,17.70
2012,01,22,01,49,12.90
2012,01,22,01,50,20.90
2012,01,22,01,51,20.90
2012,01,22,01,52,17.70
2012,01,22,01,53,24.20
2012,01,22,01,54,8.10
2012,01,22,01,55,14.50
2012,01,22,01,56,6.40
2012,01,22,01,57,12.90
2012,01,22,01,58,11.30
2012,01,22,01,59,20.90
2012,01,22,02,00,16.10
2012,01,22,02,01,19.30
2012,01,22,02,02,20.90
2012,01,22,02,03,17.70
2012,01,22,02,04,30.60
2012,01,22,02,05,22.50
2012,01,22,02,06,20.90
2012,01,22,02,07,8.10
2012,01,22,02,08,22.50
2012,01,22,02,09,17.70
2012,01,22,02,10,17.70
2012,01,22,02,11,19.30
2012,01,22,02,12,8.10
2012,01,22,02,13,19.30
2012,01,22,02,14,11.30
2012,01,22,02,15,14.50
2012,01,22,02,16,17.70
2012,01,22,02,17,11.30
2012,01,22,02,18,12.90
2012,01,22,02,19,12.90
2012,01,22,02,20,25.70
2012,01,22,02,21,17.70
2012,01,22,02,22,19.30
2012,01,22,02,23,17.70
2012,01,22,02,24,12.90
2012,01,22,02,25,12.90
2012,01,22,02,26,11.30
2012,01,22,02,27,14.50
2012,01,22,02,28,24.20
2012,01,22,02,29,16.10
2012,01,22,02,30,19.30
2012,01,22,02,31,9.60
2012,01,22,02,32,12.90
2012,01,22,02,33,24.20
2012,01,22,02,34,12.90
2012,01,22,02,35,19.30
2012,01,22,02,36,12.90
2012,01,22,02,37,9.60
2012,01,22,02,38,25.70
2012,01,22,02,39,17.70
2012,01,22,02,40,14.50
2012,01,22,02,41,12.90
2012,01,22,02,42,19.30
2012,01,22,02,43,19.30
2012,01,22,02,44,14.50
2012,01,22,02,45,16.10
2012,01,22,02,46,16.10
2012,01,22,02,47,20.90
2012,01,22,02,48,17.70
2012,01,22,02,49,20.90
2012,01,22,02,50,16.10
2012,01,22,02,51,16.10
2012,01,22,02,52,24.20
2012,01,22,02,53,24.20
2012,01,22,02,54,19.30
2012,01,22,02,55,24.20
2012,01,22,02,56,14.50
2012,01,22,02,57,17.70
2012,01,22,02,58,27.40
2012,01,22,02,59,20.90
2012,01,22,03,00,16.10
2012,01,22,03,01,25.70
2012,01,22,03,02,24.20
2012,01,22,03,06,22.50
2012,01,22,03,07,22.50
2012,01,22,03,08,19.30
2012,01,22,03,09,19.30
2012,01,22,03,10,25.70
2012,01,22,03,11,16.10
2012,01,22,03,12,32.20
2012,01,22,03,13,20.90
2012,01,22,03,14,25.70
2012,01,22,03,15,22.50
2012,01,22,03,16,19.30
2012,01,22,03,17,16.10
2012,01,22,03,18,20.90
2012,01,22,03,19,24.20
2012,01,22,03,20,25.70
2012,01,22,03,21,29.00
2012,01,22,03,22,24.20
2012,01,22,03,23,22.50
2012,01,22,03,24,25.70
2012,01,22,03,25,20.90
2012,01,22,03,26,17.70
2012,01,22,03,27,19.30
2012,01,22,03,28,17.70
2012,01,22,03,29,19.30
2012,01,22,03,30,12.90
2012,01,22,03,31,20.90
2012,01,22,03,32,12.90
2012,01,22,03,33,19.30
2012,01,22,03,34,11.30
2012,01,22,03,35,17.70
2012,01,22,03,36,22.50
2012,01,22,03,37,11.30
2012,01,22,03,38,16.10
2012,01,22,03,39,24.20
2012,01,22,03,40,19.30
2012,01,22,03,41,14.50
2012,01,22,03,42,17.70
2012,01,22,03,43,19.30
2012,01,22,03,44,9.60
2012,01,22,03,45,9.60
2012,01,22,03,46,12.90
2012,01,22,03,47,12.90
2012,01,22,03,48,20.90
2012,01,22,03,49,22.50
2012,01,22,03,50,24.20
2012,01,22,03,51,16.10
2012,01,22,03,52,16.10
2012,01,22,03,53,20.90
2012,01,22,03,54,17.70
2012,01,22,03,55,11.30
2012,01,22,03,56,17.70
2012,01,22,03,57,24.20
2012,01,22,03,58,17.70
2012,01,22,03,59,22.50
2012,01,22,04,00,27.40
2012,01,22,04,01,24.20
2012,01,22,04,02,20.90
2012,01,22,04,03,12.90
2012,01,22,04,04,20.90
2012,01,22,04,05,19.30
2012,01,22,04,06,20.90
2012,01,22,04,07,19.30
2012,01,22,04,08,16.10
2012,01,22,04,09,27.40
2012,01,22,04,10,22.50
2012,01,22,04,11,17.70
2012,01,22,04,12,20.90
2012,01,22,04,13,12.90
2012,01,22,04,14,6.40
2012,01,22,04,15,24.20
2012,01,22,04,16,17.70
2012,01,22,04,17,17.70
2012,01,22,04,18,14.50
2012,01,22,04,19,20.90
2012,01,22,04,20,12.90
2012,01,22,04,21,27.40
2012,01,22,04,22,30.60
2012,01,22,04,23,24.20
2012,01,22,04,24,30.60
2012,01,22,04,25,24.20
2012,01,22,04,26,16.10
2012,01,22,04,27,22.50
2012,01,22,04,28,16.10
2012,01,22,04,29,17.70
2012,01,22,04,30,25.70
2012,01,22,04,31,29.00
2012,01,22,04,32,20.90
2012,01,22,04,33,17.70
2012,01,22,04,34,22.50
2012,01,22,04,35,27.40
2012,01,22,04,36,20.90
2012,01,22,04,37,17.70
2012,01,22,04,38,22.50
2012,01,22,04,39,20.90
2012,01,22,04,40,22.50
2012,01,22,04,41,16.10
2012,01,22,04,42,22.50
2012,01,22,04,43,22.50
2012,01,22,04,44,29.00
2012,01,22,04,45,14.50
2012,01,22,04,46,14.50
2012,01,22,04,47,20.90
2012,01,22,04,48,20.90
2012,01,22,04,49,12.90
2012,01,22,04,50,17.70
2012,01,22,04,51,19.30
2012,01,22,04,52,35.40
2012,01,22,04,53,27.40
2012,01,22,04,54,24.20
2012,01,22,04,55,17.70
2012,01,22,04,56,16.10
2012,01,22,04,57,20.90
2012,01,22,04,58,14.50
2012,01,22,04,59,19.30
2012,01,22,05,00,17.70
2012,01,22,05,01,14.50
2012,01,22,05,02,37.00
2012,01,22,05,03,20.90
2012,01,22,05,04,14.50
2012,01,22,05,05,20.90
2012,01,22,05,06,22.50
2012,01,22,05,07,29.00
2012,01,22,05,08,29.00
2012,01,22,05,09,24.20
2012,01,22,05,10,22.50
2012,01,22,05,11,11.30
2012,01,22,05,12,24.20
2012,01,22,05,13,20.90
2012,01,22,05,14,24.20
2012,01,22,05,15,20.90
2012,01,22,05,16,29.00
2012,01,22,05,17,17.70
2012,01,22,05,18,14.50
2012,01,22,05,19,11.30
2012,01,22,05,20,32.20
2012,01,22,05,21,22.50
2012,01,22,05,22,27.40
2012,01,22,05,23,19.30
2012,01,22,05,24,24.20
2012,01,22,05,25,25.70
2012,01,22,05,26,17.70
2012,01,22,05,27,27.40
2012,01,22,05,28,14.50
2012,01,22,05,29,20.90
2012,01,22,05,30,24.20
2012,01,22,05,31,19.30
2012,01,22,05,32,14.50
2012,01,22,05,33,19.30
2012,01,22,05,34,14.50
2012,01,22,05,35,14.50
2012,01,22,05,36,24.20
2012,01,22,05,37,24.20
2012,01,22,05,38,17.70
2012,01,22,05,39,16.10
2012,01,22,05,40,20.90
2012,01,22,05,41,6.40
2012,01,22,05,42,19.30
2012,01,22,05,43,22.50
2012,01,22,05,44,25.70
2012,01,22,05,45,20.90
2012,01,22,05,46,17.70
2012,01,22,05,47,11.30
2012,01,22,05,48,12.90
2012,01,22,05,49,14.50
2012,01,22,05,50,27.40
2012,01,22,05,51,16.10
2012,01,22,05,52,19.30
2012,01,22,05,53,25.70
2012,01,22,05,54,25.70
2012,01,22,05,55,29.00
2012,01,22,05,56,30.60
2012,01,22,05,57,24.20
2012,01,22,05,58,19.30
2012,01,22,05,59,20.90
2012,01,22,06,00,22.50
2012,01,22,06,01,29.00
2012,01,22,06,02,17.70
2012,01,22,06,03,11.30
2012,01,22,06,04,9.60
2012,01,22,06,05,24.20
2012,01,22,06,06,19.30
2012,01,22,06,07,32.20
2012,01,22,06,08,30.60
2012,01,22,06,09,17.70
2012,01,22,06,10,25.70
2012,01,22,06,11,24.20
2012,01,22,06,12,16.10
2012,01,22,06,13,22.50
2012,01,22,06,14,17.70
2012,01,22,06,15,37.00
2012,01,22,06,16,30.60
2012,01,22,06,17,17.70
2012,01,22,06,18,17.70
2012,01,22,06,19,24.20
2012,01,22,06,20,29.00
2012,01,22,06,21,24.20
2012,01,22,06,22,37.00
2012,01,22,06,23,32.20
2012,01,22,06,24,22.50
2012,01,22,06,25,27.40
2012,01,22,06,26,30.60
2012,01,22,06,27,35.40
2012,01,22,06,28,19.30
2012,01,22,06,29,27.40
2012,01,22,06,30,29.00
2012,01,22,06,31,27.40
2012,01,22,06,32,22.50
2012,01,22,06,33,22.50
2012,01,22,06,34,30.60
2012,01,22,06,35,22.50
2012,01,22,06,36,30.60
2012,01,22,06,37,24.20
2012,01,22,06,38,20.90
2012,01,22,06,39,19.30
2012,01,22,06,40,14.50
2012,01,22,06,41,30.60
2012,01,22,06,42,27.40
2012,01,22,06,43,24.20
2012,01,22,06,44,17.70
2012,01,22,06,45,17.70
2012,01,22,06,46,37.00
2012,01,22,06,47,29.00
2012,01,22,06,48,22.50
2012,01,22,06,49,24.20
2012,01,22,06,50,38.60
2012,01,22,06,51,43.50
2012,01,22,06,52,32.20
2012,01,22,06,53,19.30
2012,01,22,06,54,38.60
2012,01,22,06,55,27.40
2012,01,22,06,56,38.60
2012,01,22,06,57,32.20
2012,01,22,06,58,11.30
2012,01,22,06,59,22.50
2012,01,22,07,00,24.20
2012,01,22,07,01,33.80
2012,01,22,07,02,27.40
2012,01,22,07,03,37.00
2012,01,22,07,04,27.40
2012,01,22,07,05,30.60
2012,01,22,07,06,24.20
2012,01,22,07,07,30.60
2012,01,22,07,08,33.80
2012,01,22,07,09,27.40
2012,01,22,07,10,16.10
2012,01,22,07,11,22.50
2012,01,22,07,12,19.30
2012,01,22,07,13,25.70
2012,01,22,07,14,20.90
2012,01,22,07,15,25.70
2012,01,22,07,16,22.50
2012,01,22,07,17,20.90
2012,01,22,07,18,22.50
2012,01,22,07,19,30.60
2012,01,22,07,20,25.70
2012,01,22,07,21,25.70
2012,01,22,07,22,29.00
2012,01,22,07,23,22.50
2012,01,22,07,24,17.70
2012,01,22,07,25,25.70
2012,01,22,07,26,32.20
2012,01,22,07,27,27.40
2012,01,22,07,28,25.70
2012,01,22,07,29,38.60
2012,01,22,07,30,29.00
2012,01,22,07,31,40.20
2012,01,22,07,32,38.60
2012,01,22,07,33,22.50
2012,01,22,07,34,17.70
2012,01,22,07,35,27.40
2012,01,22,07,36,30.60
2012,01,22,07,37,24.20
2012,01,22,07,38,25.70
2012,01,22,07,39,25.70
2012,01,22,07,40,24.20
2012,01,22,07,41,22.50
2012,01,22,07,42,29.00
2012,01,22,07,43,29.00
2012,01,22,07,44,24.20
2012,01,22,07,45,20.90
2012,01,22,07,46,19.30
2012,01,22,07,47,35.40
2012,01,22,07,48,24.20
2012,01,22,07,49,27.40
2012,01,22,07,50,24.20
2012,01,22,07,51,35.40
2012,01,22,07,52,16.10
2012,01,22,07,53,29.00
2012,01,22,07,54,37.00
2012,01,22,07,55,24.20
2012,01,22,07,56,35.40
2012,01,22,07,57,27.40
2012,01,22,07,58,25.70
2012,01,22,07,59,29.00
2012,01,22,08,00,35.40
2012,01,22,08,01,22.50
2012,01,22,08,02,20.90
2012,01,22,08,03,35.40
2012,01,22,08,04,27.40
2012,01,22,08,05,24.20
2012,01,22,08,06,25.70
2012,01,22,08,07,29.00
2012,01,22,08,08,33.80
2012,01,22,08,09,35.40
2012,01,22,08,10,27.40
2012,01,22,08,11,24.20
2012,01,22,08,12,46.70
2012,01,22,08,13,35.40
2012,01,22,08,14,22.50
2012,01,22,08,15,33.80
2012,01,22,08,16,25.70
2012,01,22,08,17,22.50
2012,01,22,08,18,32.20
2012,01,22,08,19,17.70
2012,01,22,08,20,25.70
2012,01,22,08,21,30.60
2012,01,22,08,22,33.80
2012,01,22,08,23,24.20
2012,01,22,08,24,17.70
2012,01,22,08,25,33.80
2012,01,22,08,26,37.00
2012,01,22,08,27,20.90
2012,01,22,08,28,33.80
2012,01,22,08,29,29.00
2012,01,22,08,30,19.30
2012,01,22,08,31,29.00
2012,01,22,08,32,29.00
2012,01,22,08,33,27.40
2012,01,22,08,34,37.00
2012,01,22,08,35,27.40
2012,01,22,08,36,30.60
2012,01,22,08,37,20.90
2012,01,22,08,38,24.20
2012,01,22,08,39,17.70
2012,01,22,08,40,25.70
2012,01,22,08,41,25.70
2012,01,22,08,42,29.00
2012,01,22,08,43,30.60
2012,01,22,08,44,22.50
2012,01,22,08,45,37.00
2012,01,22,08,46,24.20
2012,01,22,08,47,35.40
2012,01,22,08,48,25.70
2012,01,22,08,49,32.20
2012,01,22,08,50,30.60
2012,01,22,08,51,30.60
2012,01,22,08,52,29.00
2012,01,22,08,53,40.20
2012,01,22,08,54,16.10
2012,01,22,08,55,14.50
2012,01,22,08,56,24.20
2012,01,22,08,57,16.10
2012,01,22,08,58,38.60
2012,01,22,08,59,16.10
2012,01,22,09,00,12.90
2012,01,22,09,01,19.30
2012,01,22,09,02,20.90
2012,01,22,09,03,25.70
2012,01,22,09,04,19.30
2012,01,22,09,05,27.40
2012,01,22,09,06,27.40
2012,01,22,09,07,20.90
2012,01,22,09,08,19.30
2012,01,22,09,09,29.00
2012,01,22,09,10,19.30
2012,01,22,09,11,20.90
2012,01,22,09,12,27.40
2012,01,22,09,13,22.50
2012,01,22,09,14,17.70
2012,01,22,09,15,24.20
2012,01,22,09,16,19.30
2012,01,22,09,17,35.40
2012,01,22,09,18,27.40
2012,01,22,09,19,35.40
2012,01,22,09,20,24.20
2012,01,22,09,21,22.50
2012,01,22,09,22,25.70
2012,01,22,09,23,37.00
2012,01,22,09,24,25.70
2012,01,22,09,25,14.50
2012,01,22,09,26,20.90
2012,01,22,09,27,16.10
2012,01,22,09,28,19.30
2012,01,22,09,29,29.00
2012,01,22,09,30,24.20
2012,01,22,09,31,24.20
2012,01,22,09,32,33.80
2012,01,22,09,33,24.20
2012,01,22,09,34,32.20
2012,01,22,09,35,30.60
2012,01,22,09,36,14.50
2012,01,22,09,37,29.00
2012,01,22,09,38,51.50
2012,01,22,09,39,32.20
2012,01,22,09,40,19.30
2012,01,22,09,41,29.00
2012,01,22,09,42,29.00
2012,01,22,09,43,32.20
2012,01,22,09,44,20.90
2012,01,22,09,45,37.00
2012,01,22,09,46,41.80
2012,01,22,09,47,30.60
2012,01,22,09,48,17.70
2012,01,22,09,49,19.30
2012,01,22,09,50,33.80
2012,01,22,09,51,29.00
2012,01,22,09,52,22.50
2012,01,22,09,53,24.20
2012,01,22,09,54,17.70
2012,01,22,09,55,33.80
2012,01,22,09,56,14.50
2012,01,22,09,57,19.30
2012,01,22,09,58,24.20
2012,01,22,09,59,20.90
2012,01,22,10,00,32.20
2012,01,22,10,01,25.70
2012,01,22,10,02,20.90
2012,01,22,10,03,45.10
2012,01,22,10,04,35.40
2012,01,22,10,05,29.00
2012,01,22,10,06,22.50
2012,01,22,10,07,20.90
2012,01,22,10,08,20.90
2012,01,22,10,09,22.50
2012,01,22,10,10,19.30
2012,01,22,10,11,25.70
2012,01,22,10,12,27.40
2012,01,22,10,13,20.90
2012,01,22,10,14,24.20
2012,01,22,10,15,32.20
2012,01,22,10,16,32.20
2012,01,22,10,17,20.90
2012,01,22,10,18,22.50
2012,01,22,10,19,27.40
2012,01,22,10,20,25.70
2012,01,22,10,21,48.30
2012,01,22,10,22,37.00
2012,01,22,10,23,24.20
2012,01,22,10,24,40.20
2012,01,22,10,25,30.60
2012,01,22,10,26,33.80
2012,01,22,10,27,22.50
2012,01,22,10,28,35.40
2012,01,22,10,29,27.40
2012,01,22,10,30,20.90
2012,01,22,10,31,30.60
2012,01,22,10,32,25.70
2012,01,22,10,33,22.50
2012,01,22,10,34,27.40
2012,01,22,10,35,20.90
2012,01,22,10,36,14.50
2012,01,22,10,37,32.20
2012,01,22,10,38,30.60
2012,01,22,10,39,45.10
2012,01,22,10,40,40.20
2012,01,22,10,41,24.20
2012,01,22,10,42,25.70
2012,01,22,10,43,25.70
2012,01,22,10,44,35.40
2012,01,22,10,45,40.20
2012,01,22,10,46,20.90
2012,01,22,10,47,35.40
2012,01,22,10,48,45.10
2012,01,22,10,49,16.10
2012,01,22,10,50,24.20
2012,01,22,10,51,20.90
2012,01,22,10,52,16.10
2012,01,22,10,53,30.60
2012,01,22,10,54,20.90
2012,01,22,10,55,35.40
2012,01,22,10,56,41.80
2012,01,22,10,57,30.60
2012,01,22,10,58,32.20
2012,01,22,10,59,27.40
2012,01,22,11,00,37.00
2012,01,22,11,01,32.20
2012,01,22,11,02,33.80
2012,01,22,11,03,27.40
2012,01,22,11,04,35.40
2012,01,22,11,05,40.20
2012,01,22,11,06,27.40
2012,01,22,11,07,32.20
2012,01,22,11,08,29.00
2012,01,22,11,09,25.70
2012,01,22,11,10,30.60
2012,01,22,11,11,32.20
2012,01,22,11,12,35.40
2012,01,22,11,13,32.20
2012,01,22,11,14,32.20
2012,01,22,11,15,32.20
2012,01,22,11,16,46.70
2012,01,22,11,17,37.00
2012,01,22,11,18,22.50
2012,01,22,11,19,38.60
2012,01,22,11,20,35.40
2012,01,22,11,21,25.70
2012,01,22,11,22,33.80
2012,01,22,11,23,20.90
2012,01,22,11,24,33.80
2012,01,22,11,25,25.70
2012,01,22,11,26,24.20
2012,01,22,11,27,38.60
2012,01,22,11,28,22.50
2012,01,22,11,29,25.70
2012,01,22,11,30,30.60
2012,01,22,11,31,29.00
2012,01,22,11,32,33.80
2012,01,22,11,33,32.20
2012,01,22,11,34,24.20
2012,01,22,11,35,33.80
2012,01,22,11,36,43.50
2012,01,22,11,37,30.60
2012,01,22,11,38,27.40
2012,01,22,11,39,46.70
2012,01,22,11,40,33.80
2012,01,22,11,41,41.80
2012,01,22,11,42,20.90
2012,01,22,11,43,37.00
2012,01,22,11,44,32.20
2012,01,22,11,45,37.00
2012,01,22,11,46,33.80
2012,01,22,11,47,22.50
2012,01,22,11,48,22.50
2012,01,22,11,49,25.70
2012,01,22,11,50,43.50
2012,01,22,11,51,17.70
2012,01,22,11,52,25.70
2012,01,22,11,53,35.40
2012,01,22,11,54,27.40
2012,01,22,11,55,32.20
2012,01,22,11,56,22.50
2012,01,22,11,57,25.70
2012,01,22,11,58,41.80
2012,01,22,11,59,25.70
2012,01,22,12,00,35.40
2012,01,22,12,01,35.40
2012,01,22,12,02,41.80
2012,01,22,12,03,38.60
2012,01,22,12,04,33.80
2012,01,22,12,05,32.20
2012,01,22,12,06,33.80
2012,01,22,12,07,30.60
2012,01,22,12,08,38.60
2012,01,22,12,09,35.40
2012,01,22,12,10,51.50
2012,01,22,12,11,40.20
2012,01,22,12,12,24.20
2012,01,22,12,13,27.40
2012,01,22,12,14,45.10
2012,01,22,12,15,32.20
2012,01,22,12,16,41.80
2012,01,22,12,17,25.70
2012,01,22,12,18,19.30
2012,01,22,12,19,38.60
2012,01,22,12,20,33.80
2012,01,22,12,21,57.90
2012,01,22,12,22,32.20
2012,01,22,12,23,25.70
2012,01,22,12,24,27.40
2012,01,22,12,25,20.90
2012,01,22,12,26,48.30
2012,01,22,12,27,25.70
2012,01,22,12,28,37.00
2012,01,22,12,29,37.00
2012,01,22,12,30,38.60
2012,01,22,12,31,41.80
2012,01,22,12,32,37.00
2012,01,22,12,33,43.50
2012,01,22,12,34,35.40
2012,01,22,12,35,46.70
2012,01,22,12,36,17.70
2012,01,22,12,37,41.80
2012,01,22,12,38,27.40
2012,01,22,12,39,33.80
2012,01,22,12,40,35.40
2012,01,22,12,41,30.60
2012,01,22,12,42,16.10
2012,01,22,12,43,30.60
2012,01,22,12,44,38.60
2012,01,22,12,45,22.50
2012,01,22,12,46,43.50
2012,01,22,12,47,24.20
2012,01,22,12,48,35.40
2012,01,22,12,49,32.20
2012,01,22,12,50,43.50
2012,01,22,12,51,30.60
2012,01,22,12,52,29.00
2012,01,22,12,53,30.60
2012,01,22,12,54,33.80
2012,01,22,12,55,32.20
2012,01,22,12,56,27.40
2012,01,22,12,57,29.00
2012,01,22,12,58,41.80
2012,01,22,12,59,30.60
2012,01,22,13,00,29.00
2012,01,22,13,01,35.40
2012,01,22,13,02,30.60
2012,01,22,13,03,37.00
2012,01,22,13,04,32.20
2012,01,22,13,05,25.70
2012,01,22,13,06,24.20
2012,01,22,13,07,32.20
2012,01,22,13,08,33.80
2012,01,22,13,09,27.40
2012,01,22,13,10,37.00
2012,01,22,13,11,30.60
2012,01,22,13,12,40.20
2012,01,22,13,13,35.40
2012,01,22,13,14,29.00
2012,01,22,13,15,29.00
2012,01,22,13,16,32.20
2012,01,22,13,17,40.20
2012,01,22,13,18,20.90
2012,01,22,13,19,29.00
2012,01,22,13,20,24.20
2012,01,22,13,21,29.00
2012,01,22,13,22,38.60
2012,01,22,13,23,33.80
2012,01,22,13,24,35.40
2012,01,22,13,25,25.70
2012,01,22,13,26,35.40
2012,01,22,13,27,30.60
2012,01,22,13,28,30.60
2012,01,22,13,29,30.60
2012,01,22,13,30,35.40
2012,01,22,13,31,29.00
2012,01,22,13,32,25.70
2012,01,22,13,33,32.20
2012,01,22,13,34,30.60
2012,01,22,13,35,32.20
2012,01,22,13,36,33.80
2012,01,22,13,37,38.60
2012,01,22,13,38,29.00
2012,01,22,13,39,37.00
2012,01,22,13,40,40.20
2012,01,22,13,41,29.00
2012,01,22,13,42,32.20
2012,01,22,13,43,41.80
2012,01,22,13,44,38.60
2012,01,22,13,45,27.40
2012,01,22,13,46,35.40
2012,01,22,13,47,40.20
2012,01,22,13,48,41.80
2012,01,22,13,49,20.90
2012,01,22,13,50,29.00
2012,01,22,13,51,41.80
2012,01,22,13,52,29.00
2012,01,22,13,53,30.60
2012,01,22,13,54,14.50
2012,01,22,13,55,14.50
2012,01,22,13,56,16.10
2012,01,22,13,57,24.20
2012,01,22,13,58,30.60
2012,01,22,13,59,25.70
2012,01,22,14,00,38.60
2012,01,22,14,01,37.00
2012,01,22,14,02,29.00
2012,01,22,14,03,24.20
2012,01,22,14,04,38.60
2012,01,22,14,05,33.80
2012,01,22,14,06,17.70
2012,01,22,14,07,17.70
2012,01,22,14,08,35.40
2012,01,22,14,09,20.90
2012,01,22,14,10,33.80
2012,01,22,14,11,41.80
2012,01,22,14,12,29.00
2012,01,22,14,13,29.00
2012,01,22,14,14,14.50
2012,01,22,14,15,27.40
2012,01,22,14,16,20.90
2012,01,22,14,17,24.20
2012,01,22,14,18,38.60
2012,01,22,14,19,30.60
2012,01,22,14,20,24.20
2012,01,22,14,21,24.20
2012,01,22,14,22,25.70
2012,01,22,14,23,27.40
2012,01,22,14,24,22.50
2012,01,22,14,25,33.80
2012,01,22,14,26,30.60
2012,01,22,14,27,29.00
2012,01,22,14,28,20.90
2012,01,22,14,29,20.90
2012,01,22,14,30,22.50
2012,01,22,14,31,22.50
2012,01,22,14,32,25.70
2012,01,22,14,33,17.70
2012,01,22,14,34,27.40
2012,01,22,14,35,24.20
2012,01,22,14,36,24.20
2012,01,22,14,37,19.30
2012,01,22,14,38,20.90
2012,01,22,14,39,12.90
2012,01,22,14,40,29.00
2012,01,22,14,41,12.90
2012,01,22,14,42,12.90
2012,01,22,14,43,22.50
2012,01,22,14,44,25.70
2012,01,22,14,45,35.40
2012,01,22,14,46,27.40
2012,01,22,14,47,25.70
2012,01,22,14,48,14.50
2012,01,22,14,49,22.50
2012,01,22,14,50,30.60
2012,01,22,14,51,12.90
2012,01,22,14,52,12.90
2012,01,22,14,53,49.90
2012,01,22,14,54,24.20
2012,01,22,14,55,29.00
2012,01,22,14,56,32.20
2012,01,22,14,57,48.30
2012,01,22,14,58,40.20
2012,01,22,14,59,24.20
2012,01,22,15,00,19.30
2012,01,22,15,01,20.90
2012,01,22,15,02,32.20
2012,01,22,15,03,27.40
2012,01,22,15,04,19.30
2012,01,22,15,05,30.60
2012,01,22,15,06,27.40
2012,01,22,15,07,27.40
2012,01,22,15,08,40.20
2012,01,22,15,09,24.20
2012,01,22,15,10,32.20
2012,01,22,15,11,33.80
2012,01,22,15,12,45.10
2012,01,22,15,13,37.00
2012,01,22,15,14,27.40
2012,01,22,15,15,38.60
2012,01,22,15,16,35.40
2012,01,22,15,17,33.80
2012,01,22,15,18,49.90
2012,01,22,15,19,45.10
2012,01,22,15,20,38.60
2012,01,22,15,21,43.50
2012,01,22,15,22,37.00
2012,01,22,15,23,32.20
2012,01,22,15,24,37.00
2012,01,22,15,25,46.70
2012,01,22,15,26,40.20
2012,01,22,15,27,46.70
2012,01,22,15,28,35.40
2012,01,22,15,29,38.60
2012,01,22,15,30,49.90
2012,01,22,15,31,45.10
2012,01,22,15,32,30.60
2012,01,22,15,33,33.80
2012,01,22,15,34,53.10
2012,01,22,15,35,40.20
2012,01,22,15,36,40.20
2012,01,22,15,37,43.50
2012,01,22,15,38,38.60
2012,01,22,15,39,49.90
2012,01,22,15,40,33.80
2012,01,22,15,41,46.70
2012,01,22,15,42,46.70
2012,01,22,15,43,41.80
2012,01,22,15,44,38.60
2012,01,22,15,45,37.00
2012,01,22,15,46,46.70
2012,01,22,15,47,35.40
2012,01,22,15,48,53.10
2012,01,22,15,49,35.40
2012,01,22,15,50,37.00
2012,01,22,15,51,41.80
2012,01,22,15,52,32.20
2012,01,22,15,53,33.80
2012,01,22,15,54,40.20
2012,01,22,15,55,38.60
2012,01,22,15,56,29.00
2012,01,22,15,57,27.40
2012,01,22,15,58,38.60
2012,01,22,15,59,32.20
2012,01,22,16,00,46.70
2012,01,22,16,01,41.80
2012,01,22,16,02,38.60
2012,01,22,16,03,57.90
2012,01,22,16,04,37.00
2012,01,22,16,05,38.60
2012,01,22,16,06,41.80
2012,01,22,16,07,45.10
2012,01,22,16,08,43.50
2012,01,22,16,09,46.70
2012,01,22,16,10,37.00
2012,01,22,16,11,46.70
2012,01,22,16,12,41.80
2012,01,22,16,13,41.80
2012,01,22,16,14,30.60
2012,01,22,16,15,43.50
2012,01,22,16,16,49.90
2012,01,22,16,17,48.30
2012,01,22,16,18,46.70
2012,01,22,16,19,53.10
2012,01,22,16,20,45.10
2012,01,22,16,21,46.70
2012,01,22,16,22,45.10
2012,01,22,16,23,45.10
2012,01,22,16,24,38.60
2012,01,22,16,25,45.10
2012,01,22,16,26,59.50
2012,01,22,16,27,62.70
2012,01,22,16,28,40.20
2012,01,22,16,29,57.90
2012,01,22,16,30,48.30
2012,01,22,16,31,40.20
2012,01,22,16,32,37.00
2012,01,22,16,33,51.50
2012,01,22,16,34,51.50
2012,01,22,16,35,49.90
2012,01,22,16,36,45.10
2012,01,22,16,37,62.70
2012,01,22,16,38,53.10
2012,01,22,16,39,48.30
2012,01,22,16,40,51.50
2012,01,22,16,41,51.50
2012,01,22,16,42,38.60
2012,01,22,16,43,51.50
2012,01,22,16,44,54.70
2012,01,22,16,45,45.10
2012,01,22,16,46,51.50
2012,01,22,16,47,62.70
2012,01,22,16,48,49.90
2012,01,22,16,49,61.20
2012,01,22,16,50,48.30
2012,01,22,16,51,46.70
2012,01,22,16,52,46.70
2012,01,22,16,53,66.00
2012,01,22,16,54,54.70
2012,01,22,16,55,41.80
2012,01,22,16,56,51.50
2012,01,22,16,57,57.90
2012,01,22,16,58,57.90
2012,01,22,16,59,51.50
2012,01,22,17,00,57.90
2012,01,22,17,01,45.10
2012,01,22,17,02,48.30
2012,01,22,17,03,51.50
2012,01,22,17,04,45.10
2012,01,22,17,05,37.00
2012,01,22,17,06,45.10
